Weather History for Milford, UT

Change the Weather History Date:

Thursday, February 7, 2013

  Actual Average Record
Temperature  
Mean Temperature 1 °C -  
Max Temperature 11 °C 4 °C 13 °C (2000)
Min Temperature -9 °C -8 °C -17 °C (2003)
Degree Days  
Heating Degree Days 31    
Moisture  
Dew Point -7 °C    
Average Humidity 56    
Maximum Humidity 85    
Minimum Humidity 14    
Precipitation  
Precipitation 0.00 mm - - ()
Sea Level Pressure  
Sea Level Pressure 1018 hPa    
Wind  
Wind Speed 14 km/h (SSW)    
Max Wind Speed 37 km/h    
Max Gust Speed 48 km/h    
Visibility 16 kilometers    
Events      
Averages and records for this station are not official NWS values.
T = Trace of Precipitation, MM = Missing Value Source: NWS Daily Summary

Daily Weather History Graph

Daily Weather History Graph

Search for Another Location

Airport:

Trip Planner

Search our weather history database for the weather conditions in past years. The results will help you decide how hot, cold, wet, or windy it might be!

Date:

Astronomy

Feb. 07, 2013 Rise Set
Actual Time 7:31 AM MST 6:01 PM MST
Civil Twilight 7:03 AM MST 6:29 PM MST
Nautical Twilight 6:32 AM MST 7:00 PM MST
Astronomical Twilight 6:01 AM MST 7:31 PM MST
Moon 5:12 AM MST (2/7) 3:31 PM MST (2/7)
Length of Visible Light 11h 25m
Length of Day
10h 30m
Waning Crescent, 8% of the Moon is Illuminated
Feb 7
Waning Crescent
Feb 10
New
Feb 17
First Quarter
Feb 25
Full
Mar 4
Last Quarter

Hourly Weather History & Observations

Time (MST) Temp. Windchill Dew Point Humidity Pressure Visibility Wind Dir Wind Speed Gust Speed Precip Events Conditions
12:52 AM -2.8 °C -7.8 °C -5.6 °C 81% 1022.2 hPa 16.1 km SSW 14.8 km/h / 4.1 m/s - N/A   Clear
1:52 AM -5.6 °C - -7.8 °C 85% 1022.0 hPa 16.1 km Calm Calm - N/A   Clear
2:52 AM -4.4 °C -7.7 °C -7.8 °C 77% 1021.4 hPa 16.1 km West 7.4 km/h / 2.1 m/s - N/A   Clear
3:52 AM -6.1 °C -9.6 °C -8.3 °C 85% 1021.8 hPa 16.1 km South 7.4 km/h / 2.1 m/s - N/A   Clear
4:52 AM -6.7 °C -11.6 °C -8.9 °C 85% 1022.1 hPa 16.1 km West 11.1 km/h / 3.1 m/s - N/A   Clear
5:52 AM -7.2 °C -11.6 °C -10.0 °C 81% 1022.8 hPa 16.1 km SW 9.3 km/h / 2.6 m/s - N/A   Clear
6:52 AM -7.8 °C -11.6 °C -10.0 °C 84% 1023.4 hPa 16.1 km South 7.4 km/h / 2.1 m/s - N/A   Clear
7:52 AM -7.8 °C -10.7 °C -10.0 °C 84% 1023.4 hPa 16.1 km SSW 5.6 km/h / 1.5 m/s - N/A   Clear
8:52 AM -4.4 °C -9.3 °C -7.2 °C 81% 1022.9 hPa 16.1 km SSW 13.0 km/h / 3.6 m/s - N/A   Clear
9:52 AM -1.1 °C -6.1 °C -5.6 °C 72% 1021.9 hPa 16.1 km South 16.7 km/h / 4.6 m/s - N/A   Clear
10:52 AM 3.9 °C -1.2 °C -6.7 °C 46% 1020.4 hPa 16.1 km South 27.8 km/h / 7.7 m/s - N/A   Clear
11:52 AM 5.6 °C 1.6 °C -6.7 °C 41% 1019.1 hPa 16.1 km SSW 22.2 km/h / 6.2 m/s - N/A   Clear
12:52 PM 7.8 °C - -6.1 °C 37% 1017.0 hPa - North - - N/A   Clear
1:52 PM 10.0 °C - -6.7 °C 31% 1015.6 hPa 16.1 km SSW 25.9 km/h / 7.2 m/s - N/A   Clear
2:52 PM 10.6 °C - -8.3 °C 26% 1014.5 hPa 16.1 km SSW 31.5 km/h / 8.7 m/s - N/A   Clear
3:52 PM 10.6 °C - -7.8 °C 27% 1013.8 hPa 16.1 km SW 37.0 km/h / 10.3 m/s 48.2 km/h / 13.4 m/s N/A   Clear
4:52 PM 10.0 °C - -8.9 °C 26% 1013.6 hPa 16.1 km SSW 29.6 km/h / 8.2 m/s 42.6 km/h / 11.8 m/s N/A   Clear
5:52 PM 7.2 °C 3.6 °C -6.7 °C 37% 1013.7 hPa 16.1 km SSW 22.2 km/h / 6.2 m/s - N/A   Clear
6:52 PM 3.9 °C -0.1 °C -6.1 °C 49% 1014.0 hPa 16.1 km SSW 18.5 km/h / 5.1 m/s - N/A   Clear
7:52 PM 2.8 °C -2.0 °C -5.6 °C 54% 1014.0 hPa 16.1 km SW 22.2 km/h / 6.2 m/s - N/A   Clear
8:52 PM 2.2 °C -3.0 °C -5.0 °C 59% 1013.0 hPa 16.1 km SSW 24.1 km/h / 6.7 m/s - N/A   Clear
9:52 PM 1.1 °C -3.9 °C -5.6 °C 61% 1012.1 hPa 16.1 km SSW 20.4 km/h / 5.7 m/s - N/A   Clear
10:52 PM 1.1 °C -3.9 °C -6.1 °C 59% 1010.7 hPa 16.1 km SW 20.4 km/h / 5.7 m/s - N/A   Clear
11:52 PM 2.2 °C -2.2 °C -6.7 °C 52% 1009.6 hPa 16.1 km SW 18.5 km/h / 5.1 m/s - N/A   Clear